User: anonymous   Login
Location: Sankt Anna
(58.3452°N, 16.7040°E)
Time: 00:59:23
(UTC+02:00)
Language:

NUDT-PHONESAT - Orbit

View from above orbital plane
View from above orbital plane
View from above satellite
View from above satellite

Ground track
Ground track

The orbit data is extracted from the following two-line orbital elements,

1 40900U 15049B   19141.71438506  .00001888  00000-0  84015-4 0  9999
2 40900  97.4372 151.3256 0010998 284.9187 164.0287 15.22682880203405
Epoch (UTC): 21 May 2019 17:08:42
Eccentricity: 0.0010998
inclination: 97.4372°
perigee height: 490 km
apogee height: 505 km
right ascension of ascending node: 151.3256°
argument of perigee: 284.9187°
revolutions per day: 15.22682880
mean anomaly at epoch: 164.0287°
orbit number at epoch: 20340

The dashed part of the orbit path shows where the satellite is in the earth's shadow,  

DLR